Location: Griffin Ranch
(33.6186°N, 110.6622°W)
Time: 09:58:41
(UTC-07:00)

Daily predictions for brighter satellites

Satellite Brightness Start Highest point End
(mag) Time Altitude Azimuth Time Altitude Azimuth Time Altitude Azimuth
Cosmos 2279 Rocket 4.2 17:30:32 10° S 17:36:47 83° W 17:43:05 10° N
SMAP 3.3 17:35:01 10° SSE 17:39:30 50° ENE 17:43:59 10° N
Cosmos 1975 3.2 17:36:16 10° N 17:40:18 73° W 17:44:20 10° S
Meteor 2-4 Rocket 3.7 17:41:58 10° S 17:47:20 59° E 17:52:36 10° NNE
CSL-04 Debris 4.1 17:43:26 10° SSE 17:48:46 70° ENE 17:54:08 10° N
Cosmos 1025 Rocket 4.3 17:49:19 10° SE 17:52:33 21° E 17:55:46 10° NE
GOES 2 Rocket 4.0 17:48:55 10° WSW 17:52:56 44° S 17:57:31 10° ESE
ALOS 3.5 17:50:38 10° ESE 17:53:54 19° ENE 17:57:11 10° NNE
DELTA 2 R/B (1) 4.1 17:50:24 10° WNW 17:55:43 45° N 18:00:47 11° ENE
Meteor 1-13 Rocket 4.4 17:52:11 10° S 17:57:45 82° W 18:03:27 10° N
Cosmos 2369 3.8 17:52:36 10° SSW 17:58:15 86° WNW 18:03:59 10° NNE
Cosmos 2278 3.8 17:53:08 10° SSW 17:58:49 90° ESE 18:04:32 10° NNE
Cosmos 1536 Rocket 3.5 17:54:31 10° S 17:58:53 80° E 18:03:13 10° N
CZ-4 R/B 1.3 17:56:10 10° SSE 17:59:57 58° ENE 18:03:48 10° N
Hubble Space Telescope 2.3 17:57:23 10° WSW 18:01:05 32° S 18:04:48 10° SE
Meteor 1-28 Rocket 3.5 17:58:31 10° N 18:02:16 72° WNW 18:06:01 10° SSW
IRAS Rocket 4.4 17:57:49 10° S 18:03:17 78° WSW 18:08:47 10° NNW
METEOR-M 4.4 17:58:45 10° SE 18:03:47 45° ENE 18:08:50 10° N
CSL-04 Rocket 4.0 18:00:05 10° S 18:05:27 73° WSW 18:10:57 10° NNW
Cosmos 2084 3.7 18:01:53 10° SSW 18:05:59 47° ESE 18:09:22 13° NE
ATLAS 2AS CENTAUR R/B 4.3 17:59:02 10° WSW 18:06:05 37° NW 18:13:28 10° NNE
OAO 1 Rocket 4.5 18:02:31 10° W 18:07:52 77° N 18:12:22 15° E
Cosmos 158 Rocket 3.8 18:03:49 10° NNW 18:08:50 68° ENE 18:13:43 10° SSE
ATLAS 3B R/B 2.5 18:03:33 10° NNW 18:10:10 71° ENE 18:16:37 10° SE
Cosmos 1515 4.1 18:07:23 10° SSE 18:10:55 39° E 18:14:29 10° NNE
Cosmos 1743 4.1 18:09:02 10° NNW 18:12:44 43° W 18:16:25 10° SSW
EO 1 Del DPAF 3.6 18:09:25 10° NNE 18:13:02 42° E 18:16:39 10° S
DELTA 2 R/B (2) 4.1 18:12:43 10° WSW 18:15:17 72° SSE 18:17:29 21° ENE
Cosmos 468 4.5 18:10:03 10° NNW 18:15:23 83° ENE 18:20:39 10° SSE
Cosmos 1697 Rocket 2.6 18:10:49 10° SSW 18:16:27 76° ESE 18:22:06 10° NNE
SKYMED 2 3.5 18:12:27 10° NNE 18:16:47 64° E 18:21:04 10° S
USA 215 3.2 18:10:48 10° SE 18:17:19 78° NE 18:23:51 10° NW
Okean 2 3.7 18:16:25 10° SSE 18:20:20 45° E 18:24:14 10° NNE
NOSS 3-4 (A) 3.5 18:21:04 10° SSW 18:27:16 87° WNW 18:33:16 12° NNE
NOSS 3-4 (C) 3.5 18:21:09 10° SSW 18:27:22 88° WNW 18:33:20 12° NNE
ISS -3.6 18:24:43 10° NW 18:28:00 71° SW 18:31:14 10° SE
ERS-2 2.3 18:25:50 10° SSE 18:29:19 46° ENE 18:32:51 10° N
Landsat 4 4.1 18:26:33 10° N 18:30:20 65° WNW 18:34:06 10° SSW
Cosmos 2082 3.6 18:27:24 10° NNW 18:33:03 89° ENE 18:38:40 10° SSE
NOSS 2-2 (D) 3.9 18:32:12 10° S 18:35:47 36° ESE 18:36:41 31° E
SPOT 3 Rocket 3.5 18:33:17 10° SSE 18:38:21 57° ENE 18:43:25 10° N
Cosmos 2266 Rocket 4.3 18:35:58 10° NNW 18:42:02 69° W 18:48:11 10° S
EP 2 4.1 18:41:06 10° SSW 18:43:54 86° NW 18:44:01 80° N
Cosmos 1892 Rocket 4.3 18:40:31 10° SSE 18:44:08 31° E 18:44:08 31° E
YAOGAN 1 3.3 18:40:18 10° S 18:44:31 56° W 18:48:48 10° NNW
Cosmos 2227 Rocket 2.9 18:39:10 10° NNW 18:44:40 55° WSW 18:50:08 10° S
Delta 2 Rocket 4.4 18:44:04 10° W 18:49:33 59° SSW 18:52:52 21° SE
CENTAUR R/B 3.8 18:43:36 10° N 18:50:23 29° NE 18:51:51 28° ENE
NOSS 2-2 (E) 3.2 18:47:39 10° SSW 18:51:30 71° ESE 18:52:27 49° NE
MOS 1 4.4 18:47:49 10° S 18:53:31 81° WSW 18:59:12 10° NNW
Thor Agena Rocket 3.9 18:52:56 37° ENE 18:54:02 41° E 18:59:00 10° S
Cosmos 1980 Rocket 2.2 18:51:48 10° SSW 18:57:28 84° WNW 19:01:24 21° NNE
Intelsat 5-3 Rocket 4.2 18:54:12 10° SW 18:58:05 19° S 18:59:30 15° SSE
NOSS 2-2 (C) 3.1 18:54:22 10° SSW 18:58:11 71° ESE 18:58:36 64° ENE
Cosmos 1066 Rocket 4.1 18:53:17 10° S 18:58:45 62° E 19:01:39 28° NNE
S3M 4.1 18:53:18 10° SSE 18:59:10 49° E 19:01:52 30° NE
Cosmos 494 Rocket 4.0 18:55:30 10° N 19:00:38 52° ENE 19:04:06 20° SE
Shenzhou-11 Module 4.1 19:01:28 10° SSW 19:02:47 20° S 19:02:47 20° S
COSMO-SKYMED 1 4.2 19:00:50 10° N 19:04:42 33° WNW 19:08:35 10° SW
Cosmos 1184 Rocket 3.7 19:02:01 10° S 19:04:15 41° S 19:04:15 41° S
SJ 16-02 4.1 19:04:02 10° WSW 19:06:44 16° WNW 19:09:28 10° NNW
Lacrosse 5 rocket 2.9 19:06:58 10° S 19:09:08 25° SSE 19:09:08 25° SSE
Cosmos 2297 Rocket 3.7 19:06:00 10° NW 19:11:09 37° WSW 19:16:17 10° S
Atlas Centaur 2 3.3 19:09:59 10° W 19:14:15 27° SSW 19:16:06 20° SSE
Cosmos 1244 Rocket 4.5 19:10:49 10° N 19:16:59 83° W 19:23:10 10° S
RESURS DK-1 2.7 19:16:03 10° SSW 19:20:06 59° WNW 19:20:16 59° NW
ALOS 3.9 19:26:50 10° SSW 19:31:03 34° W 19:35:18 10° NNW
Cosmos 1553 Rocket 4.1 19:26:12 10° S 19:32:35 75° W 19:37:23 19° N
BREEZE-M R/B 3.9 19:29:15 10° SSW 19:31:29 36° S 19:31:29 36° S
SL-08 R/B 4.4 19:32:25 10° N 19:38:42 86° W 19:44:51 10° S
SL-16 R/B 2.7 19:33:15 10° S 19:37:22 49° S 19:37:22 49° S
Hubble Space Telescope 3.4 19:39:31 10° SW 19:41:47 14° SSW 19:41:56 14° SSW
DELTA 2 R/B (1) 4.0 19:37:07 10° WNW 19:41:34 53° NW 19:41:34 53° NW
Cosmos 2322 Rocket 2.8 19:38:19 10° SSW 19:42:07 45° S 19:42:07 45° S
Cosmos 2344 3.4 19:42:36 10° SSW 19:50:20 76° ESE 19:50:39 75° E
CENTAUR R/B 3.8 20:33:36 10° NW 20:39:08 47° NW 20:39:08 47° NW
